Content
SEND FEEDBACK

Daily
Averages
Monthly
Summary
Mexico

PUEBLA - JARDINES DE SAN MANUEL, PUEBLA


Home > North America > Mexico > Puebla
Elevation: 2122 meters     Latitude: 19 00N     Longitude: 098 11W

WEATHER
 
SELECT A DAY
Number of Records: 120,875;   Date Range: 1/1/95 - 7/23/14
 
SHARE

PRINT THIS DATA

[ ← Previous Day ]
WEATHER ALMANAC - 6 FEBRUARY, 2013
[ Next Day → ]
[ °F ]   °C
Weather ElementAverageHighLow
Temperature16.7 °C26.1 °C (2:40 pm)5 °C (6:43 am)
Dewpoint3 °C7 °C (10:42 am)-1 °C (1:43 pm)
Humidity41.6 %76 % (5:58 am)11 % (2:40 pm)
Barometer1022 hPa1028.8 hPa (9:48 am)1005.1 hPa (8:58 pm)
Wind Speed7.6 km/h24.1 km/h (5:41 pm)
Weather ElementAverage
Visibility12.2 km
Wind DirectionSSW (207.9 °)

Weather ElementTotal
Precipitation---
Heating Degree Days2.8 (Base 18.3)
Growing Degree Days5.6 (Base 10)
Averaged from 26 records on 6 February, 2013
WEATHER CONDITIONS BREAKOUT
WIND DIRECTION BREAKOUT
WEATHER BY HOUR - 6 FEBRUARY, 2013
[ °F ]   °C
Local TimeTemperatureDewpointHumidityBarometerVisibilityWind DirectionWind SpeedGust SpeedPrecipitationEventsConditions
3:40 AM7 °C2 °C71 %1025.7 hPa16.1 kmWNW (290°)5.6 km/hClear
5:50 AM10 °C3.9 °C55 %1012.5 hPa4.8 kmCalm
5:58 AM6 °C2 °C76 %1026.8 hPa12.9 kmNW (310°)7.4 km/hClear
6:43 AM5 °C1 °C76 %1027.1 hPa12.9 kmNorth (350°)5.6 km/hClear
7:49 AM7 °C2 °C71 %1027.8 hPa12.9 kmNW (320°)14.8 km/hClear
8:44 AM12 °C4 °C58 %1028.1 hPa12.9 kmNorth (350°)11.1 km/hClear
8:50 AM12.8 °C6.7 °C55 %1015.6 hPa4.8 kmCalmHaze
9:48 AM17 °C5 °C45 %1028.8 hPa12.9 kmNNE (30°)7.4 km/hClear
10:42 AM19 °C7 °C46 %1028.4 hPa12.9 kmSE (140°)5.6 km/hClear
11:40 AM22 °C1 °C25 %1027.8 hPa12.9 kmSSE (150°)7.4 km/hClear
11:50 AM22.8 °C6.1 °C23 %1014.9 hPa19.3 kmESE (120°)3.5 km/hScattered Clouds
12:46 PM24 °C0 °C21 %1026.8 hPa12.9 kmSSW (200°)7.4 km/hClear
1:43 PM24 °C-1 °C19 %1025.4 hPa12.9 kmSSW (210°)7.4 km/hPartly Cloudy
2:40 PM24 °C-1 °C19 %1025.4 hPa12.9 kmCalmScattered Clouds
2:40 PM26.1 °C1.1 °C11 %1008.8 hPa9.7 kmSSW (200°)3.5 km/hHaze
3:45 PM22 °C3 °C29 %1024 hPa12.9 kmSSW (210°)7.4 km/hMostly Cloudy
4:42 PM21 °C5 °C35 %1024 hPa12.9 kmSW (220°)14.8 km/hMostly Cloudy
5:40 PM23.3 °C3.3 °C17 %1005.4 hPa9.7 kmSouth (180°)7.2 km/hHaze
5:41 PM21 °C4 °C33 %1024 hPa16.1 kmSSW (210°)24.1 km/hScattered Clouds
6:44 PM18 °C4 °C40 %1024.7 hPa12.9 kmSouth (190°)13 km/hClear
7:40 PM16 °C4 °C45 %1025.4 hPa16.1 kmSW (220°)14.8 km/hClear
8:40 PM16 °C4 °C45 %1026.1 hPa12.9 kmWest (280°)5.6 km/hClear
8:58 PM19.4 °C1.1 °C19 %1005.1 hPa4.8 kmESE (120°)3.5 km/h
9:44 PM12 °C3 °C54 %1026.8 hPa16.1 kmNNW (330°)9.3 km/hClear
10:40 PM12 °C6 °C67 %1027.1 hPa16.1 kmWNW (300°)7.4 km/hClear
11:58 PM15.6 °C1.1 °C26 %1006.4 hPa4.8 kmENE (60°)3.5 km/h
Hourly data recorded from MMPB, located 0 kilometers away from Puebla - Jardines de San Manuel, Puebla







STORIES FROM OUR PARTNERS